Montana Department of Transportation

Main Content

Accidents and Incidents Report

Hourly Weather Roundup

ASUS45 KTFX 301219
RWRMT 
MONTANA HOURLY WEATHER ROUNDUP
NATIONAL WEATHER SERVICE GREAT FALLS MT
519 AM MST FRI JAN 30 2015

NOTE: "FAIR" INDICATES FEW OR NO CLOUDS BELOW 12000 FEET WITH NO
SIGNIFICANT WEATHER AND/OR OBSTRUCTIONS TO VISIBILITY.

* THESE STATIONS ARE NOT UNDER NWS QUALITY CONTROL. THEY DO NOT
   REPORT WEATHER SUCH AS PRECIPITATION OR FOG.

MTZ001.007-043-301300-
WEST OF THE DIVIDE
CITY           SKY/WX    TMP DP  RH WIND       PRES   REMARKS
KALISPELL      FOG        9   7  91 CALM      30.36S VSB M1/4 
MISSOULA       FOG       16  14  92 W3        30.36S VSB 3/4  
BUTTE          MOCLDY    18  14  84 CALM      30.27F 
MULLAN PASS    CLEAR     28  19  69 CALM      30.24F 
* ANACONDA     MOCLDY    21  16  81 N/A        N/A   
* ESSEX        N/A       12   9  88 N/A        N/A   
* EUREKA APT   CLEAR     25  21  85 CALM      30.40S VSB 1    
* HAMILTON APT PTCLDY    21  19  92 S2        30.33R 
* LIBBY APT    CLEAR     23  21  92 CALM      30.40S 
* LINCOLN      N/A       12  10  92 N/A        N/A   
* LOOKOUT PASS N/A       23  21  92 S2         N/A   
* POLSON       N/A       25  24  96 N1         N/A   
* RONAN APT    PTCLDY    19  18  96 N/A        N/A   
* SEELEY LAKE  N/A        6   2  83 N/A        N/A   
* THOMP F APT  CLEAR     25  21  85 NE3        N/A   
* YAAK HILL    N/A       28  26  92 N/A        N/A   
--------------------------------

MTZ008-052.055-301300-
SOUTHWEST MONTANA
CITY           SKY/WX    TMP DP  RH WIND       PRES   REMARKS
BOZEMAN        PTCLDY    21  18  88 SE6       30.27S WCI  13 
DILLON         MOCLDY    23  16  74 S13       30.27S WCI  11 
* W YELLOWSTON MOCLDY     7   3  83 N/A        N/A   
* THREE FORKS  PTCLDY    21 -24  12 N/A        N/A   
* BOULDER HILL N/A       27  12  53 SW8        N/A   WCI  19 
* MONIDA PASS  N/A       11  10  96 W3         N/A   
* RAYNOLDS PAS N/A       16   1  51 S3         N/A   
* WHITEHALL    N/A       21  17  84 NE2G11     N/A   
* WISE RIVER   N/A       13  10  88 NW4        N/A   
--------------------------------

MTZ009.010-012-014-046-048-049-054-301300-
EAST SLOPES AND CENTRAL MONTANA
CITY           SKY/WX    TMP DP  RH WIND       PRES   REMARKS
CUT BANK       CLEAR     28  14  56 NW3       30.18R 
GREAT FALLS    CLEAR     28  18  66 SW13      30.20S WCI  17 
HELENA         PTCLDY    25  19  78 CALM      30.28R 
MALMSTROM AFB  CLEAR     25  19  78 SW8       30.21F WCI  16 
* CONRAD       CLEAR     18  14  84 CALM       N/A   
* DEARBORN     N/A       29  21  72 S4         N/A   
* EAST GLACIER N/A       30  14  51 W12G17     N/A   WCI  20 
* MONARCH      N/A       25   8  48 S5G12      N/A   WCI  19 
* PENDROY      N/A       34   4  28 SW6G12     N/A   WCI  29 
* ROGERS PASS  N/A       25  18  75 SW4G12     N/A   
* SWEET GRASS  N/A       36   8  31 W11        N/A   WCI  28 
* WHITE SULPH  N/A       22  14  71 S3         N/A   
--------------------------------

MTZ011-013-016-021-035-040-045-047-050-051-301300-
NORTH CENTRAL MONTANA
CITY           SKY/WX    TMP DP  RH WIND       PRES   REMARKS
HAVRE          CLEAR     23  19  85 SW8       30.21R WCI  14 
LEWISTOWN      CLEAR     28  14  56 SW9       30.21R WCI  19 
* N BAR RANCH  CLEAR     34  10  37 NW7       30.20R WCI  28 
* CHINOOK      CLEAR     21  19  92 CALM      30.21R 
* CHESTER      N/A       23  17  78 NE1        N/A   
* DENTON       N/A       22  16  78 S1         N/A   
* GEYSER       N/A       29  10  45 SW8        N/A   WCI  21 
* JUDITH GAP   N/A       32  12  43 NW8        N/A   WCI  25 
* LOMA         N/A       27  22  81 S1         N/A   
--------------------------------

MTZ017.020-022.027-061-062-301300-
NORTHEAST MONTANA
CITY           SKY/WX    TMP DP  RH WIND       PRES   REMARKS
GLASGOW        CLEAR     19  18  96 NW9       30.16F WCI   8 
GLENDIVE       CLEAR     21  19  92 CALM      30.17S 
JORDAN         CLEAR     25  21  85 CALM      30.17S 
SIDNEY         CLEAR     21  18  88 S5        30.18R WCI  14 
WOLF POINT     CLEAR     19  18  96 SW5       30.17S WCI  12 
* BEAVER HILL  N/A       31  22  69 SW10       N/A   WCI  22 
* CIRCLE       N/A       28  25  89 N/A        N/A   
* LINDSAY DVD  N/A       34  25  70 W13        N/A   WCI  25 
* NAVAJO       N/A       29  24  82 W10G15     N/A   WCI  20 
* PLENTYWOOD A CLEAR     21  19  92 NW8       30.13S WCI  11 
* POPLAR APT   CLEAR     19  18  96 N/A       30.17S 
* SACO         N/A       21  19  92 NW4        N/A   
--------------------------------

MTZ028.042-056.058-301300-
SOUTHCENTRAL AND SOUTHEAST MONTANA
CITY           SKY/WX    TMP DP  RH WIND       PRES   REMARKS
BAKER          CLEAR     28  21  75 W7        30.17F WCI  21 
BILLINGS       PTCLDY    32  27  82 SW13      30.20S WCI  22 
LIVINGSTON     PTCLDY    30  18  61 NW15      30.21R WCI  19 
MILES CITY     CLEAR     25  21  85 S5        30.18S WCI  19 
* BIG TIMBER A MOCLDY    34  19  54 W8        30.20S WCI  27 
* FORSYTH APT  CLEAR     27  23  85 CALM      30.19R 
* LAUREL APT   PTCLDY    28  16  61 W6         N/A   WCI  21 
* ROUNDUP APT  PTCLDY    27  18  69 N/A        N/A   
* ALZADA       N/A       19  16  88 N/A        N/A   
* HYSHAM       N/A       32  25  75 W4G9       N/A   
* LAME DEER    N/A       37  22  55 W9         N/A   WCI  30 
* REED POINT   N/A       24  23  96 N/A        N/A   
* ROSCOE HILL  N/A       37  -2  19 SW9G14     N/A   WCI  30 
--------------------------------

REGIONAL REPORTS...DAKOTAS
CITY           SKY/WX    TMP DP  RH WIND       PRES   REMARKS
WILLISTON      CLEAR     18  12  77 CALM      30.15S 
DICKINSON      CLEAR     27  18  69 S10       30.14S WCI  18 
BEACH          CLEAR     28  25  89 SW10      30.15F WCI  19 
CROSBY         CLEAR     21  21 100 SW8       30.13S WCI  11 
TIOGA          CLEAR     16  16 100 CALM      30.15F 
WATFORD CITY   FAIR      19  18  96 CALM      30.13F 
BISMARCK       CLEAR     19  18  96 SE10      30.27F WCI   8 
GRAND FORKS    CLOUDY     9   3  76 SE12      30.43F WCI  -6 
FARGO          CLOUDY    10   3  73 SE9       30.45F WCI  -3 
BUFFALO SD     PTCLDY    27  16  63 CALM      30.11F 
RAPID CITY     PTCLDY    19  14  81 CALM      30.19F 
--------------------------------

REGIONAL REPORTS...WYOMING/IDAHO/WASHINGTON
CITY           SKY/WX    TMP DP  RH WIND       PRES   REMARKS
GILLETTE       MOCLDY    23  19  85 CALM      30.18F 
SHERIDAN       CLOUDY    25  19  78 CALM      30.19S 
CODY           PTCLDY    23  19  85 CALM      30.20F 
YELLOWSTONE LA MOCLDY     0  -6  75 CALM      30.28F 
SALMON         CLOUDY    25  21  85 CALM      30.37S 
MULLAN PASS    CLEAR     28  19  69 CALM      30.24S 
SAND POINT     MOCLDY    28  28 100 CALM      30.38F 
SPOKANE        FOG       28  28 100 NE3       30.35F VSB M1/4 
--------------------------------

REGIONAL REPORTS...ALBERTA
CITY           SKY/WX    TMP DP  RH WIND       PRES   REMARKS
CALGARY        MOCLDY    25  16  69 CALM      30.17S 
LETHBRIDGE     CLEAR     27  19  72 W6        30.17S WCI  20 
MEDICINE HAT   FOG       21  21 100 VRB2      30.22S VSB M1/4 
EDMONTON       PTCLDY    19  16  88 W3        30.20S 
WATERTON GATE  N/A       36  14  40 SW21G30    N/A   WCI  25 
CARDSTON       N/A       21  14  74 S3         N/A   
MILK RIVER     N/A       23  18  81 NW6        N/A   WCI  16 
--------------------------------

REGIONAL REPORTS...SASKATCHEWAN
CITY           SKY/WX    TMP DP  RH WIND       PRES   REMARKS
SWIFT CURRENT  HVY SNOW  25  25 100 W15       30.16R VSB M1/4 WCI  13 
MOOSE JAW      CLOUDY    23  23 100 NW9       30.15R WCI  13 
REGINA         FAIR      10   9  96 SE7       30.14R WCI  -1 
VAL MARIE      N/A       16  16 100 N1         N/A   
ASSINIBOIA     N/A       21  19  92 W9         N/A   WCI  11 
CORONACH       N/A       16  14  92 NW5        N/A   WCI   8 

--------------------------------